Dewpoint
56 56 56 55 54 53 54 54 54 54 54 53 53 53 53 53 53 52 52 50 50 51 50 50 49 48 48 50 49 48 47 47 47 48 48 47 47 48 48 48 48 47 49 48 48 47 47 46 46 46 47 48 48 47 46 45 45 45 44 41 39 40 37 37 34 37 38 42 40 36 37 41 41 42 42 42 38 41 48 46 47 45 44 42 41
58 58 57 55 54 54 54 54 54 54 53 53 52 52 52 52 52 51 50 49 50 50 50 49 48 47 47 47 47 47 47 46 46 47 47 47 47 49 49 48 48 47 46 47 46 48 46 45 45 45 45 47 47 46 46 46 45 45 43 40 38 40 41 39 38 38 36 40 39 39 37 39 38 36 39 38 36 39 40 41 46 46 44 40 38
58 57 56 55 55 54 55 54 54 53 53 53 52 52 52 51 52 50 49 49 49 49 49 48 48 47 47 47 46 45 46 46 46 47 46 47 47 47 48 47 47 46 46 46 46 46 45 46 45 46 46 45 45 45 46 45 45 44 43 41 39 39 40 40 39 37 37 39 39 36 37 38 36 33 33 35 38 35 34 35 37 44 44 39 38
58 56 56 56 55 54 54 54 53 53 53 53 52 51 51 51 51 50 50 49 48 47 47 48 47 46 47 46 45 44 45 45 46 46 46 46 46 47 47 47 46 46 47 46 46 45 45 45 45 46 46 45 45 45 45 45 44 44 43 42 40 40 42 41 38 39 38 37 39 34 37 38 37 38 36 37 40 40 38 40 40 41 40 40 39
58 57 56 56 56 55 54 53 53 53 53 53 52 52 51 51 50 49 49 48 48 46 47 46 46 45 46 45 45 44 45 46 46 45 45 45 46 46 46 47 47 46 46 46 49 45 46 45 46 46 46 45 45 45 46 45 44 44 43 43 41 43 45 42 41 42 39 36 38 40 40 39 39 41 40 37 40 41 42 42 42 43 44 44 41
57 56 56 56 55 55 55 55 54 53 53 53 52 52 52 51 50 49 49 48 47 46 46 45 46 45 45 45 45 45 46 46 46 45 46 46 46 46 46 47 47 46 46 46 47 46 46 46 47 47 47 46 46 46 46 46 46 45 45 45 45 46 45 43 43 42 38 37 38 39 40 38 38 40 42 38 40 42 42 43 43 44 42 42 43
57 56 56 56 55 55 55 55 54 54 55 54 54 53 51 51 51 50 50 48 48 47 47 46 47 45 45 45 45 46 47 47 45 45 46 46 46 46 46 46 46 46 46 46 46 46 46 47 47 47 47 47 47 47 47 46 47 45 47 47 47 46 45 45 44 41 40 39 40 40 39 41 39 38 41 40 40 42 42 41 41 41 42 42 41
56 56 56 56 55 55 55 55 55 55 55 55 54 53 52 51 51 50 50 47 47 48 48 47 46 45 45 44 45 46 46 46 44 46 47 47 47 46 46 46 46 46 46 46 46 46 47 47 48 48 47 48 48 48 48 47 46 45 45 47 46 46 45 45 44 43 42 41 40 40 42 40 41 43 44 40 39 40 42 41 40 38 40 40 40
55 56 56 55 55 55 55 55 55 54 54 54 54 53 53 52 51 51 50 49 49 48 48 47 46 45 44 44 44 46 46 46 46 46 46 46 46 46 46 46 46 46 46 46 46 46 46 46 47 48 50 52 50 49 49 49 48 46 46 46 45 46 44 44 44 43 42 42 42 42 41 41 41 41 40 39 39 39 42 41 39 40 40 40 40
55 55 55 55 55 55 55 55 55 54 53 53 54 54 54 53 52 52 51 50 49 49 48 47 47 46 44 44 43 45 46 46 48 47 47 47 46 46 46 46 46 46 46 46 46 48 48 47 50 54 54 53 50 47 46 47 49 48 48 47 47 46 45 44 43 43 43 42 43 43 41 42 41 42 41 41 41 40 40 39 38 38 38 37 38
53 54 55 55 55 55 55 55 55 54 54 54 55 55 54 54 53 53 53 52 50 48 48 47 46 46 45 44 43 45 46 47 45 43 42 45 47 46 46 46 46 46 46 46 46 48 49 48 48 51 53 53 49 46 45 45 46 46 47 47 48 47 45 44 43 43 44 43 42 41 41 41 41 41 40 42 40 39 39 39 39 37 35 35 34
45 48 51 53 54 54 54 54 54 54 55 53 52 53 53 53 53 52 52 53 53 50 48 48 48 46 46 45 44 44 45 46 43 42 41 41 45 47 47 47 48 47 48 48 47 48 49 49 48 48 49 48 46 45 45 44 44 45 44 44 45 45 45 46 45 43 43 43 42 43 41 42 41 41 40 39 39 39 38 38 37 37 36 35 35
39 41 42 44 44 47 49 49 50 50 52 53 53 52 53 53 53 53 52 52 52 53 52 51 50 49 46 46 46 46 45 44 42 42 41 40 40 44 47 47 48 48 49 49 49 49 50 50 49 48 50 52 51 45 45 43 41 40 40 39 38 38 38 42 44 46 46 45 44 44 43 42 41 42 41 40 40 39 37 37 36 36 35 34 34
37 37 38 40 39 39 39 39 39 40 41 42 44 46 48 49 50 50 50 51 51 51 51 51 50 50 50 49 48 48 47 46 45 44 42 40 39 41 46 47 48 48 50 50 50 50 50 51 50 50 49 50 49 47 46 45 43 41 40 40 40 38 38 38 38 41 45 47 46 45 45 44 43 42 43 41 39 38 36 36 36 34 32 31 33
38 39 40 41 42 40 39 39 39 38 38 38 39 40 40 40 42 44 45 46 48 49 49 50 50 51 50 50 49 49 49 47 44 42 41 40 40 40 44 46 48 48 49 50 51 51 51 52 51 51 51 51 51 48 47 46 44 44 42 41 39 40 39 39 39 41 43 45 46 46 45 44 43 43 43 40 40 38 37 36 35 33 33 34 34
37 37 37 38 39 39 42 40 41 40 39 38 38 39 39 38 39 42 42 41 42 43 45 46 48 50 51 49 49 50 51 46 42 41 40 40 40 43 44 45 47 48 50 50 51 51 52 52 52 52 51 51 50 45 46 47 46 45 44 41 39 36 36 39 37 38 40 43 45 45 45 44 42 43 42 39 38 37 37 35 34 33 32 31 30
36 37 39 39 41 41 40 40 41 39 38 37 36 37 37 37 39 40 39 39 41 41 42 43 44 45 47 49 49 50 50 48 44 43 42 40 41 45 46 46 47 48 50 50 51 51 52 52 52 52 52 51 48 45 43 45 46 45 44 42 39 38 37 37 37 37 39 40 40 40 39 38 38 38 37 37 36 35 33 32 32 32 31 29 31
39 39 39 39 39 39 40 39 39 38 37 37 37 37 37 37 37 38 37 36 37 38 40 40 40 41 42 43 46 47 48 48 44 44 43 41 42 47 48 48 48 48 49 50 51 51 51 52 53 52 52 52 46 44 42 45 47 47 46 44 40 40 38 36 37 36 36 36 36 36 36 36 37 37 36 36 36 36 32 31 32 33 32 31 29
41 41 40 40 39 39 40 40 39 38 39 39 38 37 37 37 37 37 36 36 36 36 38 37 38 38 40 41 45 44 45 45 43 42 41 42 43 45 47 48 49 49 49 50 50 50 51 50 50 51 51 50 46 42 42 45 47 47 46 44 44 41 39 36 36 34 33 33 32 33 34 37 36 36 38 38 38 39 34 33 35 34 34 33 32
37 40 40 40 39 39 38 39 39 39 39 39 40 39 37 37 36 36 36 35 35 36 36 36 36 37 39 40 40 41 43 43 43 40 40 40 41 45 46 47 47 48 49 50 50 50 48 47 47 45 44 45 44 41 42 42 47 49 47 46 45 45 38 35 36 37 36 37 34 34 34 36 35 34 35 37 39 40 36 36 35 35 34 34 34
37 36 36 37 38 39 40 40 38 37 37 37 37 38 40 39 38 36 35 35 35 35 35 35 35 35 36 38 39 39 41 42 41 39 38 38 39 42 45 47 48 48 48 48 48 49 50 48 45 43 42 43 43 41 40 40 43 49 48 47 47 44 36 36 35 37 37 35 36 35 35 36 36 35 34 35 36 36 36 35 34 34 33 33 32
36 36 36 36 37 36 37 37 38 38 38 37 37 36 36 36 36 38 38 35 35 35 35 35 34 34 34 35 36 37 39 41 40 39 38 38 37 38 43 45 47 48 48 48 48 48 48 48 47 44 41 40 41 41 40 41 41 46 47 43 39 36 38 38 36 36 37 37 38 37 36 36 35 36 35 35 35 37 35 34 33 32 31 32 31
36 36 36 36 37 37 37 36 37 37 37 37 36 35 36 36 36 36 35 35 35 34 34 34 34 33 33 34 34 35 35 37 38 38 37 37 37 38 38 42 41 45 47 48 49 49 48 48 47 45 41 40 40 40 40 39 39 43 42 39 37 35 38 38 36 38 38 38 37 36 36 37 37 36 36 35 35 35 34 34 33 34 35 34 33
36 36 36 36 36 37 37 37 36 36 37 36 36 35 35 36 36 36 35 35 34 34 34 34 33 33 33 33 33 34 34 35 37 37 37 37 37 37 38 39 39 43 46 48 49 50 49 48 47 43 41 40 39 39 39 39 42 41 40 39 37 36 41 38 38 39 37 35 35 35 35 35 36 35 34 33 33 33 33 33 33 33 33 34 34
36 35 35 35 35 35 35 35 35 35 35 35 35 35 34 35 35 35 35 34 34 34 33 33 33 33 33 33 33 33 34 35 36 37 37 37 37 38 38 39 39 38 42 45 47 48 46 45 43 42 40 39 39 38 38 38 39 40 40 39 39 41 41 39 40 37 35 34 34 34 34 34 33 33 33 33 33 33 33 33 33 32 32 32 32
35 35 34 34 34 34 34 34 34 34 34 34 34 34 34 34 34 34 34 34 33 33 33 33 33 33 33 33 33 34 34 35 36 37 38 39 38 38 38 38 40 40 40 42 41 41 40 40 41 40 38 38 39 40 40 41 38 39 39 39 42 42 41 42 40 38 37 36 34 35 34 34 33 33 33 32 31 31 32 31 31 30 30 30 30
35 34 34 33 33 33 33 33 32 33 32 32 33 34 33 33 33 33 33 33 32 33 32 32 33 33 33 33 33 34 34 35 36 36 38 38 39 39 39 39 39 40 41 42 41 42 43 42 41 38 38 37 37 38 38 37 38 39 40 42 43 42 40 39 37 37 34 33 32 33 33 33 32 32 31 31 31 31 30 31 30 30 30 30 30
33 33 33 33 34 34 33 33 33 32 32 31 32 33 33 33 33 33 33 33 32 33 32 32 32 32 33 33 33 32 33 33 34 35 36 37 37 37 37 38 38 39 40 41 42 43 42 37 38 39 39 39 38 36 34 35 37 37 39 39 39 39 40 38 37 37 36 34 32 32 31 31 30 30 30 30 30 31 31 31 30 30 30 29 27
33 33 32 32 32 33 33 33 33 33 33 33 33 32 33 34 34 34 33 33 32 33 33 32 32 32 32 33 32 32 31 32 33 34 35 34 34 35 36 37 38 38 40 40 39 39 40 40 38 38 38 35 34 35 33 34 34 36 36 37 37 39 37 38 36 37 33 32 31 31 31 30 30 30 30 30 30 30 30 30 30 30 28 29 29
33 33 33 32 32 33 34 33 33 33 33 33 34 33 33 36 35 34 33 35 35 35 34 32 34 33 32 33 32 32 32 33 34 34 34 34 35 35 36 36 36 36 37 38 39 37 36 36 35 36 35 35 34 33 33 33 33 33 33 33 34 36 36 36 37 36 33 32 31 30 30 30 29 29 29 29 29 29 29 31 28 28 28 27 27
32 31 33 33 33 33 34 33 34 34 34 33 34 33 33 33 34 35 35 36 35 35 34 34 34 34 35 33 33 34 34 34 34 34 35 35 35 35 35 35 35 36 37 35 36 37 36 36 35 35 34 35 34 33 33 33 32 32 32 32 34 34 33 35 34 32 31 30 31 30 30 30 29 29 29 29 29 28 28 27 28 28 29 28 28
32 32 32 32 33 32 32 33 34 34 34 33 33 33 32 32 33 34 35 35 35 35 35 35 34 34 34 34 34 33 33 34 34 34 35 35 35 35 35 35 35 36 36 37 36 35 35 36 35 34 34 33 33 32 33 33 32 32 31 31 31 32 32 32 32 32 30 30 30 30 30 29 29 29 29 28 27 27 28 26 27 27 27 27 27
30 30 30 32 32 34 34 34 34 35 35 35 34 33 31 31 31 33 33 35 35 35 35 34 34 34 34 34 34 34 34 34 34 35 35 35 35 35 35 35 35 35 35 35 36 35 34 35 35 35 34 33 32 32 32 33 33 31 31 31 31 31 31 31 31 32 30 30 30 29 29 29 28 27 27 26 27 24 25 26 26 26 25 23 23
31 31 31 31 31 33 33 34 33 33 34 33 33 31 30 31 30 30 31 32 33 33 34 34 34 34 34 34 34 35 35 35 35 35 35 35 35 35 35 34 35 35 35 35 35 35 34 34 33 32 32 32 32 32 32 33 33 32 31 33 32 32 32 31 30 30 30 30 30 29 29 28 28 27 25 25 25 26 26 24 24 24 23 23 24
31 32 32 33 32 32 33 33 33 33 32 33 31 31 31 30 29 30 31 31 31 32 32 33 34 34 34 34 34 35 35 35 34 34 34 34 35 35 34 32 32 33 34 36 36 36 34 33 33 32 31 31 32 32 33 34 33 32 31 32 32 32 32 31 30 31 30 30 29 28 28 28 27 27 27 27 26 25 23 23 22 22 23 23 24
31 30 30 31 31 31 32 33 31 31 31 32 32 31 30 30 30 32 33 33 33 33 33 33 33 34 35 35 35 35 35 34 34 33 33 34 34 34 31 30 31 32 33 34 35 36 36 35 35 35 34 33 33 33 33 33 32 33 33 32 31 31 31 30 30 30 30 30 28 28 28 27 27 26 26 26 26 25 22 22 21 22 22 23 25
31 30 29 30 31 31 31 31 31 31 31 31 30 30 30 31 31 32 33 33 33 33 33 33 34 34 34 33 35 35 35 34 34 33 33 33 34 34 34 34 34 34 33 35 36 36 36 36 36 36 36 35 35 35 33 33 34 33 32 32 32 31 31 30 30 29 29 28 28 28 28 27 28 27 27 25 22 21 21 21 21 23 24 27 29
31 31 30 30 31 32 31 31 31 31 31 31 30 30 30 30 31 30 30 31 32 32 32 33 34 33 32 33 36 35 34 33 33 33 33 33 32 31 32 33 34 34 34 35 35 35 36 36 36 36 36 36 36 35 34 34 33 32 32 32 31 31 31 30 30 30 29 28 28 28 28 27 27 26 26 26 23 22 21 22 21 23 26 28 27
29 31 33 32 32 31 32 33 33 33 32 30 30 29 29 30 30 30 30 29 29 30 31 32 33 32 32 33 34 35 34 33 32 32 32 32 31 31 32 31 31 32 33 34 35 35 35 36 35 36 36 36 35 35 34 32 33 32 32 31 30 30 30 29 29 29 28 28 27 27 27 26 25 24 25 24 22 21 21 23 24 26 26 25 25
31 29 29 31 31 31 31 32 33 32 31 30 30 29 29 29 29 29 29 28 28 28 28 30 32 32 32 33 33 34 34 33 33 32 32 32 33 34 34 33 33 32 32 34 35 35 35 35 35 35 35 35 35 34 34 33 32 31 31 30 30 30 30 30 29 28 28 28 27 27 26 25 23 22 21 22 22 19 20 23 28 28 26 26 27
29 28 30 30 31 31 32 32 31 31 30 29 29 29 29 29 29 28 28 27 27 27 28 29 31 32 33 33 33 33 34 34 33 33 33 33 33 34 34 34 34 34 34 34 34 34 35 34 34 33 33 33 33 33 33 32 31 31 31 30 30 30 30 30 29 29 28 28 27 26 24 24 24 24 23 21 27 22 21 23 25 26 28 29 29
29 30 30 29 29 29 30 31 32 33 32 30 30 30 29 29 28 28 27 27 27 27 27 29 30 32 33 33 33 33 34 33 33 33 33 34 33 33 33 33 34 34 33 33 34 33 33 33 32 32 32 32 32 31 31 31 31 31 31 30 30 30 29 29 29 29 28 28 27 26 25 25 24 24 23 27 18 19 22 23 24 26 29 30 31
29 29 28 29 28 29 30 31 32 33 32 32 32 30 30 29 28 29 27 26 27 27 26 29 32 33 32 32 32 32 32 32 32 33 33 33 33 32 33 32 33 33 33 33 34 33 32 32 32 31 31 32 32 31 31 31 31 31 31 31 30 29 29 29 28 28 27 27 26 25 25 25 25 23 22 21 19 20 21 24 26 28 30 30 29
29 29 28 28 28 28 29 29 31 32 32 32 31 30 29 28 28 28 27 27 27 26 27 30 32 31 31 31 32 31 31 31 32 32 33 32 32 32 32 32 32 32 33 32 32 32 32 32 32 32 32 32 32 32 31 31 31 31 30 30 29 29 29 28 28 27 27 27 26 26 25 24 24 23 25 24 20 23 24 27 28 29 28 28 28
29 30 30 28 27 28 28 28 28 29 30 31 31 31 31 31 30 29 28 26 29 28 30 31 31 31 31 30 29 29 29 31 31 32 32 32 31 31 31 32 32 32 32 32 32 33 32 32 32 32 31 31 31 31 30 30 30 30 30 30 29 28 28 28 27 27 27 27 26 25 24 24 23 22 23 23 24 23 25 26 26 29 30 30 29
28 28 29 29 28 28 28 28 28 27 27 27 28 30 32 32 32 31 30 29 28 29 31 32 32 32 32 30 29 29 30 31 31 31 31 31 31 31 31 31 31 32 32 32 32 32 31 31 31 30 30 29 29 28 28 28 28 27 27 27 27 26 24 23 23 25 26 26 26 25 24 23 22 23 24 22 23 24 24 25 26 27 29 29 29
28 27 28 27 28 28 28 27 27 28 27 27 28 30 32 32 31 31 30 29 29 29 31 32 32 32 32 31 30 29 30 30 31 31 31 31 32 32 32 32 32 32 32 32 31 31 31 30 29 28 28 27 27 27 27 27 27 27 27 27 26 25 23 22 23 23 23 23 25 25 24 24 22 22 23 23 24 26 27 27 27 27 27 27 27
27 27 27 28 28 28 28 28 28 29 29 28 28 29 31 32 32 32 31 31 30 30 31 32 33 32 32 32 31 31 31 32 32 32 32 32 32 32 32 32 32 32 32 31 31 31 30 29 29 28 26 26 26 26 26 26 26 26 26 27 27 26 25 24 24 23 21 21 22 23 23 23 20 20 22 20 22 25 25 25 26 25 26 27 28
27 27 27 27 29 28 28 28 29 29 29 29 29 29 31 32 33 33 32 32 31 31 32 33 33 33 33 32 32 32 32 32 32 32 31 31 32 32 32 32 31 31 31 30 29 29 28 28 27 26 25 25 25 25 25 25 24 25 25 26 26 26 26 26 26 25 24 23 23 22 23 22 22 20 21 22 22 22 22 23 24 25 26 27 28
28 28 28 28 28 28 28 28 28 28 29 29 29 31 31 32 32 33 32 31 29 31 33 33 33 33 33 33 33 33 33 32 32 32 32 32 32 32 31 31 30 30 29 28 27 27 26 26 25 24 24 24 24 24 24 24 24 24 24 24 25 25 25 25 26 26 26 25 24 24 23 23 23 19 18 18 19 20 22 24 25 27 26 25 28
29 28 28 27 27 27 28 28 27 27 28 29 30 31 32 32 32 32 32 31 30 31 33 33 33 33 33 33 32 33 33 33 33 32 32 32 32 31 31 30 29 28 27 26 25 25 24 23 23 23 23 23 22 22 22 23 23 23 23 24 24 25 25 25 25 26 26 25 24 24 24 23 24 23 22 20 18 19 24 24 24 24 24 26 27